COSMOS 2251 DEB, 35961

Orbit data source: Space-Track

COSMOS 2251 DEB, 35961 is space debris in LEO originally from a launch on Wed, 16 Jun 1993 UTC launched from the Plesetsk Missile And Space Complex (PKMTR). The debris from Iridium 33, an American commercial communications satellite, has been tracked extensively since its accidental collision with the defunct Russian satellite Cosmos 2251 in 2009. This event, occurring at high speed in low Earth orbit (LEO), generated thousands of pieces of space debris, significantly increasing the risk of further collisions. The Iridium 33 debris cloud has impacted space traffic management and orbital debris mitigation strategies, making it a subject of ongoing study in space situational awareness.

Loading next visibility...
Identifier
35961, 1993-036AVB
Orbit
LEO
Country
Flag of CISCIS
Related business
Manufacturer
Unknown
Mission
Spacecraft
Bus & Motor
Unknown
Mass
Unknown
Launch date (UTC)
1993-06-16 (33 years ago)
Launch vehicle
Unknown
Launch site
Plesetsk Missile And Space Complex (PKMTR)
Object type
Payload
Rocket body
Debris
Shape & HBR
Unknown shape, 0.1 m
Radar Cross Section
Small (<0.1 m²)

Expand to show TLE details & history
Last TLE update: 5 days ago

TLE from 5 days ago
0 COSMOS 2251 DEB
1 35961U 93036AVB 26029.94833244  .00002588  00000-0  13638-2 0  9997
2 35961  73.9258 119.3718 0188506  41.6407 319.8906 14.05742796633597
Epoch: 2026-01-29T22:45Z
TLE epoch observation values (Epoch: 2026-01-29T22:45:35.922Z)
Latitude
-0.00005°
Longitude
8.7784°
Altitude
773.065 km
Speed
7.521 km/s
True Right ascension
07h 57m 29s
True Declination
0° 00' 00"
Sunlit
Object was in full shadow at epoch
Visualization orbit readout
Latitude
Unknown
Longitude
Unknown
Altitude
Unknown
Speed
Unknown
Apparent Right ascension
Unknown
Apparent Declination
Unknown
Sunlit
N/A
Visualization observer readout
Local Sidereal Time
13:16:12
Azimuth
Unknown
Elevation
Unknown
Doppler factor
Unknown
Orbital elements
Apogee altitude
1,008.305 km
Perigee altitude
734.98 km
Semi-major axis
7,249.779 km
Eccentricity
0.01885
Inclination
73.9258°
RAAN
119.3718°
Arg. of periapsis
41.6407°
True anomaly
318.47357°
Mean anomaly
319.8906°
Eccentric anomaly
319.18465°
Mean motion
3.51606 °/min
Orbital period
102.39 mins
BSTAR
0.0013638
Loading maneuver chart data...
Computing Atmospheric mass density...

Documentation

Showing up to 5 results
|